Year,Month,Day,Hour,Minute,Value (Times are PST for windspeed in km/hr)
2013,09,28,00,00,10.00
2013,09,28,00,01,12.90
2013,09,28,00,02,9.30
2013,09,28,00,03,8.80
2013,09,28,00,04,7.90
2013,09,28,00,05,12.80
2013,09,28,00,06,6.20
2013,09,28,00,07,7.60
2013,09,28,00,08,8.00
2013,09,28,00,09,9.10
2013,09,28,00,10,7.90
2013,09,28,00,11,4.00
2013,09,28,00,12,7.50
2013,09,28,00,13,7.80
2013,09,28,00,14,11.80
2013,09,28,00,15,9.70
2013,09,28,00,16,9.30
2013,09,28,00,17,8.40
2013,09,28,00,18,7.90
2013,09,28,00,19,5.20
2013,09,28,00,20,8.00
2013,09,28,00,21,8.70
2013,09,28,00,22,7.80
2013,09,28,00,23,7.10
2013,09,28,00,24,5.10
2013,09,28,00,25,3.80
2013,09,28,00,26,8.60
2013,09,28,00,27,9.50
2013,09,28,00,28,6.50
2013,09,28,00,29,8.90
2013,09,28,00,30,7.10
2013,09,28,00,31,7.70
2013,09,28,00,32,9.30
2013,09,28,00,33,9.70
2013,09,28,00,34,9.30
2013,09,28,00,35,9.90
2013,09,28,00,36,9.40
2013,09,28,00,37,8.80
2013,09,28,00,38,8.70
2013,09,28,00,39,8.20
2013,09,28,00,40,8.40
2013,09,28,00,41,9.50
2013,09,28,00,42,9.20
2013,09,28,00,43,9.10
2013,09,28,00,44,7.00
2013,09,28,00,45,5.70
2013,09,28,00,46,9.30
2013,09,28,00,47,8.40
2013,09,28,00,48,8.20
2013,09,28,00,49,7.40
2013,09,28,00,50,9.90
2013,09,28,00,51,6.30
2013,09,28,00,52,7.30
2013,09,28,00,53,6.30
2013,09,28,00,54,6.50
2013,09,28,00,55,10.50
2013,09,28,00,56,8.60
2013,09,28,00,57,7.00
2013,09,28,00,58,8.50
2013,09,28,00,59,10.90
2013,09,28,01,00,11.60
2013,09,28,01,01,7.70
2013,09,28,01,02,7.50
2013,09,28,01,03,10.50
2013,09,28,01,04,8.70
2013,09,28,01,05,11.50
2013,09,28,01,06,15.10
2013,09,28,01,07,9.80
2013,09,28,01,08,10.50
2013,09,28,01,09,15.60
2013,09,28,01,10,9.80
2013,09,28,01,11,8.00
2013,09,28,01,12,9.90
2013,09,28,01,13,13.30
2013,09,28,01,14,13.50
2013,09,28,01,15,14.10
2013,09,28,01,16,14.40
2013,09,28,01,17,12.80
2013,09,28,01,18,12.50
2013,09,28,01,19,11.10
2013,09,28,01,20,8.20
2013,09,28,01,21,7.70
2013,09,28,01,22,9.80
2013,09,28,01,23,11.40
2013,09,28,01,24,12.70
2013,09,28,01,25,11.60
2013,09,28,01,26,8.10
2013,09,28,01,27,7.60
2013,09,28,01,28,8.00
2013,09,28,01,29,10.30
2013,09,28,01,30,9.40
2013,09,28,01,31,7.80
2013,09,28,01,32,5.60
2013,09,28,01,33,8.50
2013,09,28,01,34,9.90
2013,09,28,01,35,8.60
2013,09,28,01,36,14.70
2013,09,28,01,37,10.10
2013,09,28,01,38,9.60
2013,09,28,01,39,7.70
2013,09,28,01,40,5.20
2013,09,28,01,41,8.60
2013,09,28,01,42,10.70
2013,09,28,01,43,11.00
2013,09,28,01,44,9.10
2013,09,28,01,45,10.80
2013,09,28,01,46,7.70
2013,09,28,01,47,10.10
2013,09,28,01,48,9.20
2013,09,28,01,49,13.80
2013,09,28,01,50,10.80
2013,09,28,01,51,12.00
2013,09,28,01,52,11.70
2013,09,28,01,53,11.90
2013,09,28,01,54,9.50
2013,09,28,01,55,13.90
2013,09,28,01,56,8.90
2013,09,28,01,57,12.30
2013,09,28,01,58,14.50
2013,09,28,01,59,14.30
2013,09,28,02,00,8.90
2013,09,28,02,01,12.70
2013,09,28,02,02,14.20
2013,09,28,02,03,11.00
2013,09,28,02,04,10.70
2013,09,28,02,05,8.60
2013,09,28,02,06,14.30
2013,09,28,02,07,11.00
2013,09,28,02,08,9.70
2013,09,28,02,09,10.20
2013,09,28,02,10,14.50
2013,09,28,02,11,14.30
2013,09,28,02,12,10.80
2013,09,28,02,13,9.20
2013,09,28,02,14,10.90
2013,09,28,02,15,12.30
2013,09,28,02,16,12.70
2013,09,28,02,17,10.70
2013,09,28,02,18,15.00
2013,09,28,02,19,15.00
2013,09,28,02,20,13.10
2013,09,28,02,21,15.90
2013,09,28,02,22,12.00
2013,09,28,02,23,9.70
2013,09,28,02,24,13.40
2013,09,28,02,25,15.20
2013,09,28,02,26,14.90
2013,09,28,02,27,9.20
2013,09,28,02,28,9.30
2013,09,28,02,29,14.30
2013,09,28,02,30,10.50
2013,09,28,02,31,11.20
2013,09,28,02,32,10.70
2013,09,28,02,33,14.70
2013,09,28,02,34,12.40
2013,09,28,02,35,13.30
2013,09,28,02,36,10.30
2013,09,28,02,37,6.10
2013,09,28,02,38,6.80
2013,09,28,02,39,9.90
2013,09,28,02,40,16.10
2013,09,28,02,41,14.10
2013,09,28,02,42,11.00
2013,09,28,02,43,17.00
2013,09,28,02,44,14.10
2013,09,28,02,45,10.60
2013,09,28,02,46,9.50
2013,09,28,02,47,8.00
2013,09,28,02,48,10.80
2013,09,28,02,49,10.70
2013,09,28,02,50,13.00
2013,09,28,02,51,11.10
2013,09,28,02,52,15.20
2013,09,28,02,53,9.90
2013,09,28,02,54,14.00
2013,09,28,02,55,14.30
2013,09,28,02,56,13.30
2013,09,28,02,57,14.60
2013,09,28,02,58,12.70
2013,09,28,02,59,11.40
2013,09,28,03,00,13.90
2013,09,28,03,01,12.00
2013,09,28,03,02,12.90
2013,09,28,03,03,17.70
2013,09,28,03,04,13.20
2013,09,28,03,05,13.30
2013,09,28,03,06,10.30
2013,09,28,03,07,12.30
2013,09,28,03,08,13.30
2013,09,28,03,09,10.20
2013,09,28,03,10,11.10
2013,09,28,03,11,12.50
2013,09,28,03,12,7.60
2013,09,28,03,13,12.20
2013,09,28,03,14,7.70
2013,09,28,03,15,14.40
2013,09,28,03,16,10.70
2013,09,28,03,17,11.30
2013,09,28,03,18,16.70
2013,09,28,03,19,17.30
2013,09,28,03,20,17.90
2013,09,28,03,21,17.50
2013,09,28,03,22,17.00
2013,09,28,03,23,15.60
2013,09,28,03,24,13.30
2013,09,28,03,25,17.30
2013,09,28,03,26,14.50
2013,09,28,03,27,12.20
2013,09,28,03,28,12.30
2013,09,28,03,29,14.40
2013,09,28,03,30,11.90
2013,09,28,03,31,10.70
2013,09,28,03,32,17.30
2013,09,28,03,33,12.10
2013,09,28,03,34,15.20
2013,09,28,03,35,10.50
2013,09,28,03,36,10.70
2013,09,28,03,37,14.80
2013,09,28,03,38,20.40
2013,09,28,03,39,18.70
2013,09,28,03,40,12.40
2013,09,28,03,41,12.40
2013,09,28,03,42,14.00
2013,09,28,03,43,16.60
2013,09,28,03,44,14.30
2013,09,28,03,45,17.00
2013,09,28,03,46,17.70
2013,09,28,03,47,11.90
2013,09,28,03,48,17.50
2013,09,28,03,49,13.60
2013,09,28,03,50,14.30
2013,09,28,03,51,9.40
2013,09,28,03,52,13.10
2013,09,28,03,53,11.90
2013,09,28,03,54,12.90
2013,09,28,03,55,14.90
2013,09,28,03,56,14.30
2013,09,28,03,57,14.40
2013,09,28,03,58,17.60
2013,09,28,03,59,11.90
2013,09,28,04,00,13.30
2013,09,28,04,01,15.30
2013,09,28,04,02,11.30
2013,09,28,04,03,14.40
2013,09,28,04,04,15.40
2013,09,28,04,05,19.50
2013,09,28,04,06,13.90
2013,09,28,04,07,10.80
2013,09,28,04,08,14.50
2013,09,28,04,09,18.30
2013,09,28,04,10,13.20
2013,09,28,04,11,14.10
2013,09,28,04,12,18.30
2013,09,28,04,13,14.20
2013,09,28,04,14,16.80
2013,09,28,04,15,13.20
2013,09,28,04,16,11.00
2013,09,28,04,17,14.50
2013,09,28,04,18,10.00
2013,09,28,04,19,8.80
2013,09,28,04,20,9.10
2013,09,28,04,21,12.20
2013,09,28,04,22,9.20
2013,09,28,04,23,15.80
2013,09,28,04,24,9.30
2013,09,28,04,25,9.70
2013,09,28,04,26,17.10
2013,09,28,04,27,13.40
2013,09,28,04,28,11.40
2013,09,28,04,29,12.60
2013,09,28,04,30,10.90
2013,09,28,04,31,10.50
2013,09,28,04,32,14.40
2013,09,28,04,33,15.90
2013,09,28,04,34,13.30
2013,09,28,04,35,10.60
2013,09,28,04,36,10.30
2013,09,28,04,37,16.00
2013,09,28,04,38,15.90
2013,09,28,04,39,13.40
2013,09,28,04,40,9.70
2013,09,28,04,41,13.40
2013,09,28,04,42,10.90
2013,09,28,04,43,8.60
2013,09,28,04,44,11.00
2013,09,28,04,45,13.40
2013,09,28,04,46,11.70
2013,09,28,04,47,15.70
2013,09,28,04,48,9.70
2013,09,28,04,49,9.60
2013,09,28,04,50,13.70
2013,09,28,04,51,10.50
2013,09,28,04,52,12.50
2013,09,28,04,53,12.10
2013,09,28,04,54,13.50
2013,09,28,04,55,13.70
2013,09,28,04,56,11.70
2013,09,28,04,57,15.80
2013,09,28,04,58,16.60
2013,09,28,04,59,11.00
2013,09,28,05,00,14.20
2013,09,28,05,01,10.40
2013,09,28,05,02,13.60
2013,09,28,05,03,13.50
2013,09,28,05,04,14.00
2013,09,28,05,05,16.40
2013,09,28,05,06,12.40
2013,09,28,05,07,14.50
2013,09,28,05,08,13.00
2013,09,28,05,09,14.10
2013,09,28,05,10,16.20
2013,09,28,05,11,13.50
2013,09,28,05,12,14.50
2013,09,28,05,13,16.50
2013,09,28,05,14,14.80
2013,09,28,05,15,14.00
2013,09,28,05,16,14.50
2013,09,28,05,17,13.20
2013,09,28,05,18,10.50
2013,09,28,05,19,9.40
2013,09,28,05,20,15.90
2013,09,28,05,21,14.90
2013,09,28,05,22,9.80
2013,09,28,05,23,18.20
2013,09,28,05,24,13.10
2013,09,28,05,25,14.40
2013,09,28,05,26,12.20
2013,09,28,05,27,17.00
2013,09,28,05,28,12.00
2013,09,28,05,29,12.20
2013,09,28,05,30,11.20
2013,09,28,05,31,7.90
2013,09,28,05,32,8.90
2013,09,28,05,33,8.70
2013,09,28,05,34,10.30
2013,09,28,05,35,5.30
2013,09,28,05,36,8.40
2013,09,28,05,37,12.60
2013,09,28,05,38,13.30
2013,09,28,05,39,15.30
2013,09,28,05,40,9.80
2013,09,28,05,41,13.60
2013,09,28,05,42,10.80
2013,09,28,05,43,13.20
2013,09,28,05,44,11.30
2013,09,28,05,45,13.60
2013,09,28,05,46,10.20
2013,09,28,05,47,15.30
2013,09,28,05,48,15.30
2013,09,28,05,49,8.40
2013,09,28,05,50,6.40
2013,09,28,05,51,11.40
2013,09,28,05,52,12.00
2013,09,28,05,53,10.40
2013,09,28,05,54,9.20
2013,09,28,05,55,14.90
2013,09,28,05,56,8.50
2013,09,28,05,57,12.60
2013,09,28,05,58,8.20
2013,09,28,05,59,10.50
2013,09,28,06,00,12.60
2013,09,28,06,01,8.70
2013,09,28,06,02,9.70
2013,09,28,06,03,9.90
2013,09,28,06,04,12.90
2013,09,28,06,05,16.90
2013,09,28,06,06,10.10
2013,09,28,06,07,13.20
2013,09,28,06,08,13.40
2013,09,28,06,09,10.20
2013,09,28,06,10,11.60
2013,09,28,06,11,9.90
2013,09,28,06,12,8.10
2013,09,28,06,13,12.50
2013,09,28,06,14,10.70
2013,09,28,06,15,10.90
2013,09,28,06,16,15.80
2013,09,28,06,17,11.70
2013,09,28,06,18,18.00
2013,09,28,06,19,12.20
2013,09,28,06,20,13.40
2013,09,28,06,21,10.40
2013,09,28,06,22,11.30
2013,09,28,06,23,10.70
2013,09,28,06,24,12.30
2013,09,28,06,25,11.70
2013,09,28,06,26,14.10
2013,09,28,06,27,10.90
2013,09,28,06,28,12.90
2013,09,28,06,29,11.00
2013,09,28,06,30,9.70
2013,09,28,06,31,9.10
2013,09,28,06,32,14.90
2013,09,28,06,33,12.40
2013,09,28,06,34,9.70
2013,09,28,06,35,9.20
2013,09,28,06,36,8.00
2013,09,28,06,37,10.30
2013,09,28,06,38,7.00
2013,09,28,06,39,10.00
2013,09,28,06,40,9.50
2013,09,28,06,41,8.10
2013,09,28,06,42,6.30
2013,09,28,06,43,7.60
2013,09,28,06,44,9.10
2013,09,28,06,45,7.20
2013,09,28,06,46,6.40
2013,09,28,06,47,4.20
2013,09,28,06,48,7.50
2013,09,28,06,49,8.00
2013,09,28,06,50,8.70
2013,09,28,06,51,9.00
2013,09,28,06,52,6.40
2013,09,28,06,53,7.90
2013,09,28,06,54,14.70
2013,09,28,06,55,7.70
2013,09,28,06,56,7.20
2013,09,28,06,57,10.90
2013,09,28,06,58,8.20
2013,09,28,06,59,7.50
2013,09,28,07,00,7.20
2013,09,28,07,01,10.00
2013,09,28,07,02,11.30
2013,09,28,07,03,7.00
2013,09,28,07,04,7.30
2013,09,28,07,05,11.50
2013,09,28,07,06,10.20
2013,09,28,07,07,10.00
2013,09,28,07,08,9.50
2013,09,28,07,09,13.20
2013,09,28,07,10,11.20
2013,09,28,07,11,8.20
2013,09,28,07,12,11.40
2013,09,28,07,13,8.30
2013,09,28,07,14,13.40
2013,09,28,07,15,7.80
2013,09,28,07,16,10.20
2013,09,28,07,17,14.00
2013,09,28,07,18,13.90
2013,09,28,07,19,13.20
2013,09,28,07,20,10.90
2013,09,28,07,21,16.80
2013,09,28,07,22,13.90
2013,09,28,07,23,13.20
2013,09,28,07,24,11.90
2013,09,28,07,25,12.60
2013,09,28,07,26,16.10
2013,09,28,07,27,10.80
2013,09,28,07,28,10.60
2013,09,28,07,29,14.20
2013,09,28,07,30,11.40
2013,09,28,07,31,11.40
2013,09,28,07,32,14.30
2013,09,28,07,33,12.80
2013,09,28,07,34,15.70
2013,09,28,07,35,15.40
2013,09,28,07,36,19.10
2013,09,28,07,37,14.80
2013,09,28,07,38,9.80
2013,09,28,07,39,9.90
2013,09,28,07,40,15.00
2013,09,28,07,41,16.00
2013,09,28,07,42,10.80
2013,09,28,07,43,20.10
2013,09,28,07,44,19.10
2013,09,28,07,45,20.50
2013,09,28,07,46,18.90
2013,09,28,07,47,12.90
2013,09,28,07,48,18.40
2013,09,28,07,49,16.80
2013,09,28,07,50,13.30
2013,09,28,07,51,12.30
2013,09,28,07,52,17.50
2013,09,28,07,53,15.70
2013,09,28,07,54,16.00
2013,09,28,07,55,12.50
2013,09,28,07,56,13.00
2013,09,28,07,57,15.20
2013,09,28,07,58,12.30
2013,09,28,07,59,6.00
2013,09,28,08,00,13.50
2013,09,28,08,01,11.20
2013,09,28,08,02,8.60
2013,09,28,08,03,12.90
2013,09,28,08,04,11.90
2013,09,28,08,05,18.10
2013,09,28,08,06,18.70
2013,09,28,08,07,17.00
2013,09,28,08,08,9.70
2013,09,28,08,09,13.10
2013,09,28,08,10,13.30
2013,09,28,08,11,14.60
2013,09,28,08,12,10.30
2013,09,28,08,13,15.70
2013,09,28,08,14,13.70
2013,09,28,08,15,10.00
2013,09,28,08,16,13.20
2013,09,28,08,17,18.00
2013,09,28,08,18,14.90
2013,09,28,08,19,14.10
2013,09,28,08,20,13.00
2013,09,28,08,21,14.90
2013,09,28,08,22,12.20
2013,09,28,08,23,15.00
2013,09,28,08,24,14.50
2013,09,28,08,25,14.70
2013,09,28,08,26,14.90
2013,09,28,08,27,18.60
2013,09,28,08,28,13.10
2013,09,28,08,29,10.00
2013,09,28,08,30,16.80
2013,09,28,08,31,17.40
2013,09,28,08,32,17.00
2013,09,28,08,33,16.00
2013,09,28,08,34,19.40
2013,09,28,08,35,11.60
2013,09,28,08,36,11.30
2013,09,28,08,37,18.00
2013,09,28,08,38,13.30
2013,09,28,08,39,12.30
2013,09,28,08,40,12.80
2013,09,28,08,41,13.70
2013,09,28,08,42,15.80
2013,09,28,08,43,20.40
2013,09,28,08,44,19.00
2013,09,28,08,45,20.60
2013,09,28,08,46,15.20
2013,09,28,08,47,15.10
2013,09,28,08,48,13.70
2013,09,28,08,49,14.40
2013,09,28,08,50,10.50
2013,09,28,08,51,12.60
2013,09,28,08,52,19.60
2013,09,28,08,53,14.50
2013,09,28,08,54,18.90
2013,09,28,08,55,13.80
2013,09,28,08,56,15.70
2013,09,28,08,57,13.80
2013,09,28,08,58,11.40
2013,09,28,08,59,12.30
2013,09,28,09,00,13.70
2013,09,28,09,01,13.80
2013,09,28,09,02,18.70
2013,09,28,09,03,22.90
2013,09,28,09,04,13.70
2013,09,28,09,05,10.90
2013,09,28,09,06,18.50
2013,09,28,09,07,14.90
2013,09,28,09,08,15.90
2013,09,28,09,09,10.60
2013,09,28,09,10,13.60
2013,09,28,09,11,16.70
2013,09,28,09,12,18.00
2013,09,28,09,13,14.50
2013,09,28,09,14,23.10
2013,09,28,09,15,14.70
2013,09,28,09,16,21.00
2013,09,28,09,17,21.30
2013,09,28,09,18,18.80
2013,09,28,09,19,23.70
2013,09,28,09,20,23.70
2013,09,28,09,21,22.40
2013,09,28,09,22,26.00
2013,09,28,09,23,18.20
2013,09,28,09,24,23.90
2013,09,28,09,25,18.70
2013,09,28,09,26,13.80
2013,09,28,09,27,22.50
2013,09,28,09,28,22.50
2013,09,28,09,29,22.10
2013,09,28,09,30,17.50
2013,09,28,09,31,23.30
2013,09,28,09,32,19.00
2013,09,28,09,33,16.70
2013,09,28,09,34,21.20
2013,09,28,09,35,23.00
2013,09,28,09,36,25.00
2013,09,28,09,37,21.50
2013,09,28,09,38,13.70
2013,09,28,09,39,22.80
2013,09,28,09,40,23.90
2013,09,28,09,41,15.50
2013,09,28,09,42,19.50
2013,09,28,09,43,24.10
2013,09,28,09,44,24.40
2013,09,28,09,45,19.40
2013,09,28,09,46,16.70
2013,09,28,09,47,16.70
2013,09,28,09,48,23.20
2013,09,28,09,49,13.50
2013,09,28,09,50,15.80
2013,09,28,09,51,18.00
2013,09,28,09,52,17.30
2013,09,28,09,53,16.50
2013,09,28,09,54,17.80
2013,09,28,09,55,20.80
2013,09,28,09,56,19.80
2013,09,28,09,57,17.40
2013,09,28,09,58,24.40
2013,09,28,09,59,27.50
2013,09,28,10,00,18.30
2013,09,28,10,01,26.60
2013,09,28,10,02,24.30
2013,09,28,10,03,24.30
2013,09,28,10,04,17.60
2013,09,28,10,05,21.10
2013,09,28,10,06,21.20
2013,09,28,10,07,14.40
2013,09,28,10,08,18.40
2013,09,28,10,09,21.50
2013,09,28,10,10,21.80
2013,09,28,10,11,18.80
2013,09,28,10,12,19.00
2013,09,28,10,13,15.20
2013,09,28,10,14,20.60
2013,09,28,10,15,14.10
2013,09,28,10,16,16.60
2013,09,28,10,17,29.00
2013,09,28,10,18,23.50
2013,09,28,10,19,15.30
2013,09,28,10,20,28.60
2013,09,28,10,21,18.30
2013,09,28,10,22,23.90
2013,09,28,10,23,17.70
2013,09,28,10,24,17.50
2013,09,28,10,25,27.00
2013,09,28,10,26,23.40
2013,09,28,10,27,23.60
2013,09,28,10,28,20.00
2013,09,28,10,29,22.00
2013,09,28,10,30,24.00
2013,09,28,10,31,21.00
2013,09,28,10,32,22.70
2013,09,28,10,33,22.90
2013,09,28,10,34,21.10
2013,09,28,10,35,13.90
2013,09,28,10,36,24.10
2013,09,28,10,37,23.40
2013,09,28,10,38,27.20
2013,09,28,10,39,16.80
2013,09,28,10,40,21.00
2013,09,28,10,41,25.80
2013,09,28,10,42,19.70
2013,09,28,10,43,19.00
2013,09,28,10,44,15.80
2013,09,28,10,45,22.80
2013,09,28,10,46,20.70
2013,09,28,10,47,19.00
2013,09,28,10,48,19.00
2013,09,28,10,49,18.50
2013,09,28,10,50,18.40
2013,09,28,10,51,27.90
2013,09,28,10,52,23.00
2013,09,28,10,53,27.40
2013,09,28,10,54,16.10
2013,09,28,10,55,22.90
2013,09,28,10,56,22.40
2013,09,28,10,57,20.90
2013,09,28,10,58,24.20
2013,09,28,10,59,21.90
2013,09,28,11,00,22.10
2013,09,28,11,01,18.30
2013,09,28,11,02,25.00
2013,09,28,11,03,22.50
2013,09,28,11,04,20.00
2013,09,28,11,05,19.50
2013,09,28,11,06,17.80
2013,09,28,11,07,19.80
2013,09,28,11,08,20.00
2013,09,28,11,09,19.50
2013,09,28,11,10,16.70
2013,09,28,11,11,16.40
2013,09,28,11,12,26.60
2013,09,28,11,13,18.80
2013,09,28,11,14,17.50
2013,09,28,11,15,18.90
2013,09,28,11,16,18.40
2013,09,28,11,17,20.90
2013,09,28,11,18,20.20
2013,09,28,11,19,23.40
2013,09,28,11,20,18.50
2013,09,28,11,21,16.50
2013,09,28,11,22,18.90
2013,09,28,11,23,23.30
2013,09,28,11,24,17.20
2013,09,28,11,25,16.40
2013,09,28,11,26,11.50
2013,09,28,11,27,14.50
2013,09,28,11,28,26.70
2013,09,28,11,29,19.50
2013,09,28,11,30,26.70
2013,09,28,11,31,18.50
2013,09,28,11,32,17.30
2013,09,28,11,33,18.00
2013,09,28,11,34,19.40
2013,09,28,11,35,20.30
2013,09,28,11,36,21.60
2013,09,28,11,37,17.90
2013,09,28,11,38,26.60
2013,09,28,11,39,19.60
2013,09,28,11,40,22.10
2013,09,28,11,41,16.30
2013,09,28,11,42,22.90
2013,09,28,11,43,20.80
2013,09,28,11,44,21.70
2013,09,28,11,45,19.40
2013,09,28,11,46,18.00
2013,09,28,11,47,25.40
2013,09,28,11,48,19.10
2013,09,28,11,49,20.10
2013,09,28,11,50,15.50
2013,09,28,11,51,15.60
2013,09,28,11,52,20.00
2013,09,28,11,53,22.90
2013,09,28,11,54,18.80
2013,09,28,11,55,18.50
2013,09,28,11,56,20.30
2013,09,28,11,57,15.80
2013,09,28,11,58,27.70
2013,09,28,11,59,28.30
2013,09,28,12,00,22.30
2013,09,28,12,01,29.60
2013,09,28,12,02,25.10
2013,09,28,12,03,22.00
2013,09,28,12,04,18.60
2013,09,28,12,05,22.40
2013,09,28,12,06,23.40
2013,09,28,12,07,19.00
2013,09,28,12,08,26.80
2013,09,28,12,09,19.50
2013,09,28,12,10,19.60
2013,09,28,12,11,21.30
2013,09,28,12,12,17.20
2013,09,28,12,13,16.10
2013,09,28,12,14,14.10
2013,09,28,12,15,32.30
2013,09,28,12,16,23.00
2013,09,28,12,17,24.40
2013,09,28,12,18,21.50
2013,09,28,12,19,22.10
2013,09,28,12,20,18.40
2013,09,28,12,21,29.80
2013,09,28,12,22,28.60
2013,09,28,12,23,22.20
2013,09,28,12,24,27.50
2013,09,28,12,25,23.30
2013,09,28,12,26,19.10
2013,09,28,12,27,16.90
2013,09,28,12,28,21.60
2013,09,28,12,29,28.30
2013,09,28,12,30,23.10
2013,09,28,12,31,25.00
2013,09,28,12,32,29.50
2013,09,28,12,33,22.60
2013,09,28,12,34,29.90
2013,09,28,12,35,17.30
2013,09,28,12,36,23.30
2013,09,28,12,37,20.90
2013,09,28,12,38,19.70
2013,09,28,12,39,21.80
2013,09,28,12,40,22.80
2013,09,28,12,41,21.80
2013,09,28,12,42,18.10
2013,09,28,12,43,17.60
2013,09,28,12,44,26.70
2013,09,28,12,45,18.60
2013,09,28,12,46,20.90
2013,09,28,12,47,25.50
2013,09,28,12,48,24.90
2013,09,28,12,49,24.70
2013,09,28,12,50,20.20
2013,09,28,12,51,20.90
2013,09,28,12,52,30.30
2013,09,28,12,53,26.60
2013,09,28,12,54,22.80
2013,09,28,12,55,25.20
2013,09,28,12,56,19.80
2013,09,28,12,57,17.50
2013,09,28,12,58,19.10
2013,09,28,12,59,30.60
2013,09,28,13,00,32.50
2013,09,28,13,01,25.10
2013,09,28,13,02,19.90
2013,09,28,13,03,32.70
2013,09,28,13,04,21.80
2013,09,28,13,05,24.40
2013,09,28,13,06,23.50
2013,09,28,13,07,24.20
2013,09,28,13,08,22.20
2013,09,28,13,09,23.60
2013,09,28,13,10,23.90
2013,09,28,13,11,20.90
2013,09,28,13,12,19.10
2013,09,28,13,13,14.50
2013,09,28,13,14,17.40
2013,09,28,13,15,23.40
2013,09,28,13,16,21.40
2013,09,28,13,17,22.10
2013,09,28,13,18,21.70
2013,09,28,13,19,23.40
2013,09,28,13,20,24.50
2013,09,28,13,21,24.70
2013,09,28,13,22,24.60
2013,09,28,13,23,23.80
2013,09,28,13,24,21.60
2013,09,28,13,25,24.60
2013,09,28,13,26,27.20
2013,09,28,13,27,28.30
2013,09,28,13,28,25.80
2013,09,28,13,29,25.00
2013,09,28,13,30,22.20
2013,09,28,13,31,18.20
2013,09,28,13,32,23.00
2013,09,28,13,33,18.80
2013,09,28,13,34,19.40
2013,09,28,13,35,19.60
2013,09,28,13,36,26.20
2013,09,28,13,37,15.30
2013,09,28,13,38,24.60
2013,09,28,13,39,25.90
2013,09,28,13,40,15.50
2013,09,28,13,41,24.90
2013,09,28,13,42,23.90
2013,09,28,13,43,17.00
2013,09,28,13,44,22.60
2013,09,28,13,45,20.00
2013,09,28,13,46,20.00
2013,09,28,13,47,25.80
2013,09,28,13,48,21.30
2013,09,28,13,49,17.40
2013,09,28,13,50,15.90
2013,09,28,13,51,20.10
2013,09,28,13,52,21.00
2013,09,28,13,53,15.50
2013,09,28,13,54,21.20
2013,09,28,13,55,20.30
2013,09,28,13,56,15.30
2013,09,28,13,57,22.30
2013,09,28,13,58,18.50
2013,09,28,13,59,21.90
2013,09,28,14,00,22.10
2013,09,28,14,01,23.30
2013,09,28,14,02,18.60
2013,09,28,14,03,23.00
2013,09,28,14,04,16.30
2013,09,28,14,05,17.80
2013,09,28,14,06,18.50
2013,09,28,14,07,19.10
2013,09,28,14,08,16.00
2013,09,28,14,09,19.90
2013,09,28,14,10,16.50
2013,09,28,14,11,16.50
2013,09,28,14,12,21.60
2013,09,28,14,13,17.80
2013,09,28,14,14,21.80
2013,09,28,14,15,16.50
2013,09,28,14,16,20.50
2013,09,28,14,17,14.00
2013,09,28,14,18,18.60
2013,09,28,14,19,19.10
2013,09,28,14,20,23.50
2013,09,28,14,21,19.90
2013,09,28,14,22,16.10
2013,09,28,14,23,19.30
2013,09,28,14,24,15.40
2013,09,28,14,25,19.20
2013,09,28,14,26,18.40
2013,09,28,14,27,14.40
2013,09,28,14,28,18.80
2013,09,28,14,29,20.30
2013,09,28,14,30,23.70
2013,09,28,14,31,15.00
2013,09,28,14,32,14.20
2013,09,28,14,33,17.90
2013,09,28,14,34,17.30
2013,09,28,14,35,16.10
2013,09,28,14,36,11.60
2013,09,28,14,37,18.60
2013,09,28,14,38,17.50
2013,09,28,14,39,20.20
2013,09,28,14,40,23.00
2013,09,28,14,41,16.20
2013,09,28,14,42,19.90
2013,09,28,14,43,22.70
2013,09,28,14,44,16.90
2013,09,28,14,45,14.60
2013,09,28,14,46,18.60
2013,09,28,14,47,17.20
2013,09,28,14,48,14.00
2013,09,28,14,49,16.70
2013,09,28,14,50,18.00
2013,09,28,14,51,16.40
2013,09,28,14,52,16.30
2013,09,28,14,53,13.30
2013,09,28,14,54,11.80
2013,09,28,14,55,10.60
2013,09,28,14,56,16.90
2013,09,28,14,57,17.10
2013,09,28,14,58,16.80
2013,09,28,14,59,17.90
2013,09,28,15,00,17.10
2013,09,28,15,01,13.80
2013,09,28,15,02,9.50
2013,09,28,15,03,7.30
2013,09,28,15,04,8.10
2013,09,28,15,05,8.60
2013,09,28,15,06,9.90
2013,09,28,15,07,10.10
2013,09,28,15,08,6.00
2013,09,28,15,09,7.20
2013,09,28,15,10,9.70
2013,09,28,15,11,9.50
2013,09,28,15,12,11.30
2013,09,28,15,13,9.20
2013,09,28,15,14,7.80
2013,09,28,15,15,7.90
2013,09,28,15,16,12.10
2013,09,28,15,17,11.90
2013,09,28,15,18,11.10
2013,09,28,15,19,13.70
2013,09,28,15,20,12.70
2013,09,28,15,21,12.90
2013,09,28,15,22,11.80
2013,09,28,15,23,9.70
2013,09,28,15,24,10.50
2013,09,28,15,25,9.50
2013,09,28,15,26,14.90
2013,09,28,15,27,8.40
2013,09,28,15,28,13.40
2013,09,28,15,29,11.90
2013,09,28,15,30,12.20
2013,09,28,15,31,15.80
2013,09,28,15,32,16.30
2013,09,28,15,33,14.40
2013,09,28,15,34,13.20
2013,09,28,15,35,12.30
2013,09,28,15,36,11.50
2013,09,28,15,37,8.90
2013,09,28,15,38,7.50
2013,09,28,15,39,6.70
2013,09,28,15,40,5.40
2013,09,28,15,41,9.80
2013,09,28,15,42,10.40
2013,09,28,15,43,11.40
2013,09,28,15,44,16.80
2013,09,28,15,45,13.80
2013,09,28,15,46,11.50
2013,09,28,15,47,15.90
2013,09,28,15,48,11.50
2013,09,28,15,49,10.80
2013,09,28,15,50,16.40
2013,09,28,15,51,14.00
2013,09,28,15,52,9.90
2013,09,28,15,53,6.20
2013,09,28,15,54,5.10
2013,09,28,15,55,9.80
2013,09,28,15,56,16.00
2013,09,28,15,57,10.40
2013,09,28,15,58,5.50
2013,09,28,15,59,10.40
2013,09,28,16,00,14.20
2013,09,28,16,01,12.20
2013,09,28,16,02,11.00
2013,09,28,16,03,13.20
2013,09,28,16,04,12.60
2013,09,28,16,05,11.90
2013,09,28,16,06,12.40
2013,09,28,16,07,9.50
2013,09,28,16,08,8.20
2013,09,28,16,09,13.60
2013,09,28,16,10,15.40
2013,09,28,16,11,15.50
2013,09,28,16,12,19.50
2013,09,28,16,13,12.80
2013,09,28,16,14,17.10
2013,09,28,16,15,14.00
2013,09,28,16,16,12.80
2013,09,28,16,17,16.40
2013,09,28,16,18,15.10
2013,09,28,16,19,11.80
2013,09,28,16,20,7.60
2013,09,28,16,21,13.60
2013,09,28,16,22,11.80
2013,09,28,16,23,13.20
2013,09,28,16,24,12.50
2013,09,28,16,25,16.80
2013,09,28,16,26,12.20
2013,09,28,16,27,11.70
2013,09,28,16,28,15.20
2013,09,28,16,29,12.90
2013,09,28,16,30,12.40
2013,09,28,16,31,13.20
2013,09,28,16,32,13.80
2013,09,28,16,33,12.90
2013,09,28,16,34,10.50
2013,09,28,16,35,11.30
2013,09,28,16,36,19.30
2013,09,28,16,37,17.50
2013,09,28,16,38,15.80
2013,09,28,16,39,12.80
2013,09,28,16,40,14.40
2013,09,28,16,41,15.40
2013,09,28,16,42,15.50
2013,09,28,16,43,16.20
2013,09,28,16,44,16.80
2013,09,28,16,45,14.80
2013,09,28,16,46,15.60
2013,09,28,16,47,13.30
2013,09,28,16,48,14.70
2013,09,28,16,49,13.70
2013,09,28,16,50,14.30
2013,09,28,16,51,12.30
2013,09,28,16,52,14.30
2013,09,28,16,53,11.90
2013,09,28,16,54,16.00
2013,09,28,16,55,14.40
2013,09,28,16,56,15.10
2013,09,28,16,57,19.00
2013,09,28,16,58,17.20
2013,09,28,16,59,12.80
2013,09,28,17,00,10.40
2013,09,28,17,01,6.60
2013,09,28,17,02,5.30
2013,09,28,17,03,12.90
2013,09,28,17,04,13.10
2013,09,28,17,05,15.50
2013,09,28,17,06,13.70
2013,09,28,17,07,10.80
2013,09,28,17,08,9.10
2013,09,28,17,09,7.50
2013,09,28,17,10,8.40
2013,09,28,17,11,11.40
2013,09,28,17,12,10.60
2013,09,28,17,13,13.40
2013,09,28,17,14,11.40
2013,09,28,17,15,12.30
2013,09,28,17,16,10.50
2013,09,28,17,17,10.90
2013,09,28,17,18,8.50
2013,09,28,17,19,9.80
2013,09,28,17,20,16.50
2013,09,28,17,21,10.30
2013,09,28,17,22,11.20
2013,09,28,17,23,8.60
2013,09,28,17,24,10.80
2013,09,28,17,25,10.10
2013,09,28,17,26,13.80
2013,09,28,17,27,16.00